CAPE
0 1 367 252 0 0 0 0 1 0 0 0 0 0 0 431 779 973 1421 1169 955 504 1911 2177 2467 2723 2023 1167 1389 1001 804 807 746 290 99 21 106 255 538 755 815 805 858 865 755 799 737 644 443
0 143 475 0 0 0 0 0 0 0 0 0 0 307 360 992 1043 1221 1305 1142 979 617 1914 2250 2672 2872 2231 1997 1824 1689 1525 1570 1148 731 163 37 22 138 310 639 707 758 839 871 885 746 635 572 423
0 14 0 0 0 0 0 0 0 0 0 0 0 118 1168 1361 1051 1179 1081 1380 543 781 2021 2289 2699 2689 2493 1787 1918 1440 1503 1728 1383 1137 326 92 25 69 217 497 702 718 807 810 744 711 585 431 108
0 0 0 0 0 0 0 0 0 0 0 0 0 38 967 1089 980 1116 1601 1386 489 1032 1858 2596 2384 2399 2285 1797 1703 1679 1701 1879 1462 1321 390 124 85 28 548 554 672 683 600 604 601 525 391 246 91
0 0 0 0 0 0 0 0 0 0 0 0 0 0 686 926 732 1517 1875 1316 330 981 1502 2758 2354 2325 2328 2007 1905 1577 1730 1950 1757 1474 919 433 87 71 500 671 552 567 522 520 476 398 330 440 295
0 0 0 0 0 0 0 0 0 0 0 0 0 0 360 501 744 1543 1854 1741 946 1010 1531 2364 2413 2441 2525 2186 2029 1991 1625 1829 1585 1743 990 484 237 48 343 523 541 462 356 401 339 277 327 267 198
0 0 0 0 0 0 0 0 0 0 0 0 0 0 0 234 818 1610 1841 2337 1624 1095 1495 2442 2415 2070 2311 2382 2253 2271 1741 1761 1842 1383 1313 722 90 81 275 196 387 435 291 243 253 248 293 211 177
0 0 0 0 0 0 0 0 0 0 0 0 0 0 0 0 721 1429 1977 1871 2206 1443 1781 2404 2182 1917 1915 1764 1802 1863 1635 1871 1996 1353 1129 783 127 459 356 386 451 464 204 220 212 249 222 143 79
0 0 0 0 0 0 0 0 0 0 0 0 0 0 0 0 879 1070 1559 1627 1891 2071 1853 2483 2299 2183 2071 2054 1924 1845 1320 1239 1536 1349 1122 750 70 51 57 302 531 366 134 155 119 112 75 40 23
0 0 0 0 0 0 0 0 0 0 0 0 0 0 0 0 12 474 841 1453 1675 1765 2071 1872 2097 1977 1809 1076 1273 944 896 293 241 992 715 720 110 62 27 362 637 319 130 96 55 81 37 73 30
0 0 0 0 0 0 0 0 0 0 0 0 0 0 0 0 0 0 8 238 1097 1980 1941 1839 2025 2022 1764 1083 787 349 6 1 71 318 787 661 722 27 10 278 301 231 166 55 36 0 2 6 18
0 0 0 0 0 0 0 0 0 0 0 0 0 0 0 0 0 0 0 0 0 416 1645 2194 1748 1761 1773 1553 1035 667 405 4 13 193 154 404 585 10 1 74 82 56 71 31 11 2 0 1 0
0 0 0 0 0 0 0 0 0 0 0 0 0 0 0 0 0 0 0 0 0 0 303 1107 1796 1704 1259 947 726 657 548 354 189 7 6 106 437 223 1 39 134 25 36 31 0 0 1 3 6
0 0 0 0 0 0 0 0 0 0 0 0 0 0 0 0 0 0 0 0 0 0 0 1 472 1666 1575 945 642 514 310 231 345 145 51 134 411 307 69 9 72 44 16 0 0 0 0 3 2
0 0 0 0 0 0 0 0 0 0 0 0 0 0 0 0 0 0 0 0 0 0 0 0 36 710 1172 959 752 728 734 710 197 180 262 393 482 261 36 1 30 20 5 0 0 0 0 1 4
0 0 0 0 0 0 0 0 0 0 0 0 0 0 0 0 0 0 0 0 0 0 0 0 5 391 930 1067 1016 738 660 723 492 209 277 414 426 227 25 0 6 6 3 0 0 0 0 1 4
0 0 0 0 0 0 0 0 0 0 0 0 0 0 0 0 0 0 0 0 0 0 0 0 4 550 967 1063 832 685 446 436 443 299 314 314 204 90 15 0 2 0 0 0 0 0 0 0 1
0 0 0 0 0 0 0 0 0 0 0 0 0 0 0 0 0 0 3 0 0 0 0 0 3 631 982 843 729 476 369 328 416 177 184 47 46 49 16 0 0 0 0 0 0 0 0 0 0
0 0 0 0 0 0 0 0 0 0 0 0 0 0 0 0 0 17 62 33 3 0 4 8 166 620 1065 882 724 405 507 260 132 66 38 50 6 2 0 0 0 0 0 0 0 0 0 0 0
0 0 0 0 0 0 0 0 0 0 0 0 0 0 0 3 6 19 100 158 99 27 121 422 765 763 1001 853 682 543 318 292 325 79 84 81 1 0 0 0 0 0 0 0 0 0 0 0 0
0 0 0 0 0 0 0 0 0 0 0 0 0 0 6 16 18 26 198 353 430 493 612 760 676 778 945 829 857 509 20 2 3 2 10 55 0 0 0 0 0 0 0 0 0 0 0 0 0
0 0 0 0 0 0 0 0 0 0 0 0 0 1 12 2 2 19 15 60 147 548 680 995 874 774 1137 882 896 424 91 5 3 0 1 0 2 0 0 0 0 0 0 0 0 0 0 0 0
0 0 0 0 0 0 0 0 0 0 0 0 0 2 6 2 3 39 5 6 41 89 237 634 876 745 1126 1002 764 523 34 2 5 1 1 2 3 1 0 0 0 0 0 0 0 0 0 0 0
0 0 0 0 0 0 0 0 0 0 0 0 0 1 4 7 3 15 13 3 41 36 94 260 285 172 392 508 465 164 6 1 2 2 2 4 8 7 0 0 0 0 0 0 0 0 0 0 0
0 0 0 0 0 0 0 0 0 0 0 0 0 2 3 2 5 11 20 25 66 21 38 25 42 28 6 1 10 26 9 4 3 6 2 2 3 6 3 0 0 0 0 0 0 0 0 1 8
0 0 0 12 0 0 0 0 0 0 0 0 0 1 0 0 2 4 8 77 63 5 5 2 21 16 11 4 5 5 4 2 6 2 4 4 4 3 2 1 0 0 0 0 0 0 0 0 0
0 0 0 0 0 0 0 0 0 0 0 0 0 2 3 0 1 3 3 5 14 11 5 0 5 7 7 7 5 3 3 4 3 5 4 3 2 3 1 1 0 0 0 0 0 0 0 0 0
0 0 0 0 0 0 0 0 0 0 0 0 0 2 3 4 0 1 2 4 6 7 7 6 7 10 10 7 7 6 5 5 4 2 2 1 1 0 0 0 0 0 0 0 0 0 0 0 0
0 0 0 0 0 0 0 0 0 0 0 0 0 0 2 1 5 3 3 3 3 3 3 4 5 5 5 7 6 7 10 8 3 3 1 3 2 0 0 0 0 0 0 0 0 0 0 0 0
0 0 0 0 0 0 0 0 0 0 0 0 0 0 1 1 1 1 1 1 0 0 1 2 2 5 4 5 4 4 4 4 7 6 7 5 5 1 2 1 0 0 0 0 0 0 0 0 0
CIN
-0 -4 -99 -86 -0 -0 -0 -0 -287 -0 -0 -0 -0 -0 -0 -52 -11 -8 -92 -144 -163 -183 -9 -0 -0 -0 -0 -1 -0 -3 -0 -0 -0 -15 -80 -150 -43 -5 -0 -0 -0 -0 -0 -0 -0 -0 -0 -0 -0
-0 -153 -50 -0 -0 -0 -0 -0 -0 -0 -0 -0 -0 -67 -49 -0 -51 -66 -74 -129 -175 -168 -4 -0 -0 -0 -0 -0 -0 -0 -0 -0 -0 -0 -37 -139 -135 -20 -5 -0 -0 -0 -0 -0 -0 -0 -0 -0 -0
-0 -88 -0 -0 -0 -0 -0 -0 -0 -0 -0 -0 -0 -176 -10 -9 -69 -79 -116 -110 -218 -122 -1 -0 -0 -0 -0 -0 -0 -0 -0 -0 -0 -0 -6 -73 -127 -45 -11 -0 -0 -0 -0 -0 -0 -0 -0 -0 -36
-0 -0 -0 -0 -0 -0 -0 -0 -0 -0 -0 -0 -0 -46 -24 -78 -93 -102 -73 -107 -184 -80 -0 -1 -2 -0 -0 -0 -0 -0 -0 -0 -0 -0 -3 -35 -51 -90 -0 -0 -0 -0 -0 -0 -0 -0 -6 -12 -57
-0 -0 -0 -0 -0 -0 -0 -0 -0 -0 -0 -0 -0 -0 -23 -64 -128 -68 -36 -95 -169 -73 -6 -0 -2 -0 -0 -0 -0 -0 -0 -0 -0 -0 -0 -4 -46 -50 -0 -0 -0 -0 -0 -0 -0 -11 -19 -9 -17
-0 -0 -0 -0 -0 -0 -0 -0 -0 -0 -0 -0 -0 -0 -51 -86 -93 -52 -35 -25 -85 -65 -9 -0 -2 -1 -0 -0 -0 -0 -0 -0 -0 -0 -0 -2 -16 -65 -0 -0 -0 -0 -9 -8 -17 -41 -25 -30 -37
-0 -0 -0 -0 -0 -0 -0 -0 -0 -0 -0 -0 -0 -0 -0 -78 -81 -32 -27 -0 -16 -45 -17 -0 -0 -0 -1 -3 -0 -0 -0 -0 -0 -0 -0 -0 -27 -20 -1 -3 -0 -0 -14 -35 -34 -47 -26 -42 -43
-0 -0 -0 -0 -0 -0 -0 -0 -0 -0 -0 -0 -0 -0 -0 -0 -88 -36 -4 -15 -0 -22 -5 -0 -1 -0 -0 -0 -4 -4 -2 -0 -0 -0 -1 -0 -2 -0 -0 -0 -0 -0 -15 -24 -52 -36 -39 -75 -0
-0 -0 -0 -0 -0 -0 -0 -0 -0 -0 -0 -0 -0 -0 -0 -0 -65 -49 -7 -14 -7 -0 -0 -0 -0 -5 -13 -0 -0 -0 -2 -1 -0 -0 -0 -1 -1 -1 -4 -3 -0 -0 -33 -37 -28 -0 -0 -4 -17
-0 -0 -0 -0 -0 -0 -0 -0 -0 -0 -0 -0 -0 -0 -0 -0 -59 -32 -38 -2 -19 -20 -0 -0 -0 -2 -6 -73 -27 -23 -16 -4 -5 -0 -0 -0 -0 -1 -5 -1 -0 -0 -17 -18 -0 -0 -5 -3 -0
-0 -0 -0 -0 -0 -0 -0 -0 -0 -0 -0 -0 -0 -0 -0 -0 -0 -0 -12 -121 -35 -0 -1 -3 -0 -0 -0 -27 -44 -86 -246 -0 -2 -16 -2 -0 -3 -12 -0 -0 -0 -2 -7 -0 -0 -0 -0 -0 -0
-0 -0 -0 -0 -0 -0 -0 -0 -0 -0 -0 -0 -0 -0 -0 -0 -0 -0 -0 -0 -0 -98 -9 -0 -2 -0 -0 -0 -11 -38 -60 -22 -87 -0 -7 -8 -2 -31 -0 -0 -0 -2 -0 -0 -0 -0 -0 -0 -0
-0 -0 -0 -0 -0 -0 -0 -0 -0 -0 -0 -0 -0 -0 -0 -0 -0 -0 -0 -0 -0 -0 -152 -49 -0 -0 -10 -31 -38 -19 -15 -21 -67 -171 -191 -21 -0 -2 -1 -3 -0 -2 -0 -0 -0 -0 -0 -0 -0
-0 -0 -0 -0 -0 -0 -0 -0 -0 -0 -0 -0 -0 -0 -0 -0 -0 -0 -0 -0 -0 -0 -0 -101 -134 -2 -3 -44 -70 -53 -39 -39 -13 -62 -109 -32 -8 -3 -30 -1 -5 -6 -0 -0 -0 -0 -0 -0 -0
-0 -0 -0 -0 -0 -0 -0 -0 -0 -0 -0 -0 -0 -0 -0 -0 -0 -0 -0 -0 -0 -0 -0 -0 -286 -97 -36 -41 -37 -34 -44 -4 -24 -4 -5 -0 -0 -3 -51 -0 -26 -40 -0 -0 -0 -0 -0 -0 -0
-0 -0 -0 -0 -0 -0 -0 -0 -0 -0 -0 -0 -0 -0 -0 -0 -0 -0 -0 -0 -0 -0 -0 -0 -74 -148 -46 -10 -22 -34 -30 -7 -0 -15 -0 -0 -2 -3 -74 -0 -53 -13 -0 -0 -0 -0 -0 -0 -0
-0 -0 -0 -0 -0 -0 -0 -0 -0 -0 -0 -0 -0 -0 -0 -0 -0 -0 -0 -0 -0 -0 -0 -0 -65 -118 -45 -23 -18 -19 -18 -0 -2 -1 -1 -1 -5 -59 -78 -0 -0 -0 -0 -0 -0 -0 -0 -0 -0
-0 -0 -0 -0 -0 -0 -0 -0 -0 -0 -0 -0 -0 -0 -0 -0 -0 -0 -0 -0 -0 -0 -0 -0 -189 -88 -40 -30 -29 -43 -18 -3 -0 -1 -3 -6 -59 -32 -79 -0 -0 -0 -0 -0 -0 -0 -0 -0 -0
-0 -0 -0 -0 -0 -0 -0 -0 -0 -0 -0 -0 -0 -0 -0 -0 -0 -38 -95 -151 -0 -0 -259 -223 -165 -84 -17 -26 -18 -32 -0 -0 -0 -4 -4 -28 -82 -62 -0 -0 -0 -0 -0 -0 -0 -0 -0 -0 -0
-0 -0 -0 -0 -0 -0 -0 -0 -0 -0 -0 -0 -0 -0 -0 -0 -0 -0 -61 -78 -114 -183 -134 -57 -39 -38 -20 -20 -16 -5 -0 -0 -0 -16 -0 -4 -32 -0 -0 -0 -0 -0 -0 -0 -0 -0 -0 -0 -0
-0 -0 -0 -0 -0 -0 -0 -0 -0 -0 -0 -0 -0 -0 -0 -0 -0 -5 -1 -1 -3 -9 -15 -19 -43 -33 -25 -20 -2 -1 -170 -0 -0 -10 -7 -7 -0 -0 -0 -0 -0 -0 -0 -0 -0 -0 -0 -0 -0
-0 -0 -0 -0 -0 -0 -0 -0 -0 -0 -0 -0 -0 -0 -0 -0 -0 -9 -58 -64 -64 -33 -28 -12 -28 -59 -13 -16 -0 -4 -14 -0 -0 -0 -0 -0 -0 -0 -0 -0 -0 -0 -0 -0 -0 -0 -0 -0 -0
-0 -0 -0 -0 -0 -0 -0 -0 -0 -0 -0 -0 -0 -0 -0 -0 -0 -14 -0 -85 -102 -116 -103 -44 -40 -59 -3 -3 -0 -0 -41 -0 -0 -0 -0 -0 -0 -0 -0 -0 -0 -0 -0 -0 -0 -0 -0 -0 -0
-0 -0 -0 -0 -0 -0 -0 -0 -0 -0 -0 -0 -0 -0 -0 -0 -0 -16 -45 -1 -99 -141 -123 -100 -103 -114 -70 -40 -7 -75 -69 -0 -0 -0 -0 -0 -0 -0 -0 -0 -0 -0 -0 -0 -0 -0 -0 -0 -0
-0 -0 -0 -0 -0 -0 -0 -0 -0 -0 -0 -0 -0 -0 -0 -0 -0 -0 -27 -56 -58 -123 -145 -150 -131 -139 -100 -5 -122 -90 -102 -0 -0 -0 -0 -0 -0 -0 -0 -0 -0 -0 -0 -0 -0 -0 -0 -1 -5
-0 -0 -0 -0 -0 -0 -0 -0 -0 -0 -0 -0 -0 -0 -0 -0 -0 -0 -0 -11 -37 -63 -0 -20 -121 -140 -160 -0 -0 -0 -0 -0 -0 -0 -0 -0 -0 -0 -0 -0 -0 -0 -0 -0 -0 -0 -0 -0 -0
-0 -0 -0 -0 -0 -0 -0 -0 -0 -0 -0 -0 -0 -0 -0 -0 -0 -0 -0 -1 -14 -6 -0 -0 -0 -0 -0 -0 -0 -0 -0 -0 -0 -0 -0 -0 -0 -0 -0 -0 -0 -0 -0 -0 -0 -0 -0 -0 -0
-0 -0 -0 -0 -0 -0 -0 -0 -0 -0 -0 -0 -0 -0 -0 -0 -0 -0 -0 -0 -0 -0 -0 -0 -0 -0 -0 -0 -0 -0 -0 -0 -0 -0 -0 -0 -0 -0 -0 -0 -0 -0 -0 -0 -0 -0 -0 -0 -0
-0 -0 -0 -0 -0 -0 -0 -0 -0 -0 -0 -0 -0 -0 -0 -0 -0 -0 -0 -0 -0 -0 -0 -0 -0 -0 -0 -0 -0 -0 -0 -0 -0 -0 -0 -0 -0 -0 -0 -0 -0 -0 -0 -0 -0 -0 -0 -0 -0
-0 -0 -0 -0 -0 -0 -0 -0 -0 -0 -0 -0 -0 -0 -0 -0 -0 -0 -0 -0 -0 -0 -0 -0 -0 -0 -0 -0 -0 -0 -0 -0 -0 -0 -0 -0 -0 -0 -0 -0 -0 -0 -0 -0 -0 -0 -0 -0 -0
Wind_Speed
3 3 1 4 5 5 3 4 1 3 2 6 8 6 7 4 7 6 4 2 2 12 15 19 17 18 18 18 17 17 16 16 15 16 14 13 12 10 10 12 12 13 14 15 15 15 16 17 17
3 3 2 1 5 6 5 3 1 5 7 9 3 2 5 4 5 2 1 5 5 15 14 17 18 17 17 17 15 16 16 16 16 15 14 14 13 11 9 10 12 13 14 15 16 16 15 17 17
4 2 4 4 3 6 3 3 1 7 2 8 3 3 5 5 4 4 6 5 10 15 14 14 17 16 16 16 16 15 15 17 17 15 15 14 13 13 10 9 11 13 14 15 15 15 17 18 17
3 4 3 7 5 2 1 2 2 5 1 4 5 2 2 5 5 8 8 1 12 15 14 15 16 16 18 17 16 15 15 17 17 15 15 13 14 14 12 11 13 14 13 14 15 15 16 18 18
1 2 5 5 5 2 4 1 1 2 2 4 6 4 2 3 5 5 4 2 10 13 13 14 16 16 18 18 17 16 15 16 17 15 15 14 14 13 13 13 14 14 14 14 15 16 15 17 16
3 2 6 7 5 5 5 3 2 2 2 3 3 5 3 4 6 6 4 2 6 11 12 11 15 15 16 19 18 17 16 15 17 15 14 14 14 14 13 14 15 14 14 15 15 15 17 18 18
1 3 3 3 3 5 6 1 5 3 4 1 5 6 3 6 5 4 3 4 4 8 11 6 12 14 15 17 19 18 18 16 16 15 15 13 14 13 13 12 14 15 14 14 15 14 17 18 18
1 3 5 4 4 3 5 2 1 4 1 4 3 3 1 7 4 4 1 0 2 9 7 6 7 11 12 12 16 18 17 17 16 16 15 15 13 12 10 10 13 16 15 15 15 15 17 18 18
1 5 5 2 4 3 4 4 4 0 6 2 1 5 5 5 2 3 1 2 2 4 8 9 9 9 8 10 11 16 17 13 14 14 14 14 10 12 12 10 11 16 16 17 16 14 16 17 15
6 4 1 0 3 3 2 5 3 5 4 4 4 3 6 6 5 5 4 5 5 6 7 7 8 8 8 5 5 7 8 3 5 10 15 9 11 11 9 11 12 16 17 18 17 14 12 11 8
3 2 1 3 6 4 5 6 4 6 6 2 4 6 4 4 3 4 4 4 8 7 7 8 8 9 9 7 6 4 4 6 2 3 6 10 4 8 8 8 9 11 14 9 10 10 5 7 6
6 3 4 1 3 5 8 4 7 8 3 3 0 3 3 4 4 5 5 5 5 8 9 9 9 7 9 6 6 6 4 5 5 2 5 3 4 9 8 8 9 10 8 9 7 5 6 8 8
6 2 5 7 6 9 8 12 9 9 6 4 3 2 3 5 6 5 5 6 7 7 6 9 10 12 9 8 6 7 8 7 9 10 10 7 6 7 6 7 8 8 7 7 6 7 7 7 8
1 6 9 7 7 6 6 7 6 9 8 7 5 3 2 5 7 9 8 8 9 7 7 7 10 12 11 9 9 7 8 11 12 10 14 18 11 7 8 9 8 8 8 7 7 7 7 7 8
3 8 7 9 6 4 5 9 12 4 10 9 7 5 4 6 9 10 11 12 11 11 10 9 8 11 11 11 9 6 6 9 10 11 16 17 16 11 13 11 10 9 9 11 9 9 8 9 9
5 5 7 6 3 3 6 12 3 9 10 11 8 7 6 9 9 10 11 12 12 13 13 9 7 10 12 10 8 6 4 5 8 11 12 16 15 13 12 9 8 10 9 9 9 9 9 8 8
6 7 6 4 3 3 10 9 3 8 9 11 9 9 9 12 13 11 10 12 13 14 14 11 8 10 12 8 7 7 7 4 7 8 11 15 12 13 10 7 10 11 10 9 9 8 9 9 8
3 7 5 7 4 6 12 16 11 9 10 11 9 11 11 14 14 13 13 14 14 13 13 11 8 11 13 8 7 4 5 5 6 9 8 11 8 11 10 8 12 12 10 10 10 11 9 9 9
7 8 10 8 4 8 12 12 10 7 9 9 8 10 13 15 17 15 13 13 11 10 12 12 11 13 9 7 7 5 6 5 4 7 12 12 10 10 9 9 13 12 11 12 12 11 12 9 10
9 11 12 8 4 7 10 14 11 6 7 3 7 11 13 16 16 15 12 8 7 8 9 9 9 14 9 8 6 4 5 4 7 5 9 11 12 11 11 13 12 11 11 12 13 12 9 9 10
12 13 10 10 3 11 11 15 6 4 5 3 5 7 10 12 14 14 11 6 4 2 2 5 8 11 10 11 6 4 6 4 2 5 6 9 10 10 11 14 11 9 10 10 13 13 14 11 10
12 7 9 7 6 6 2 4 8 7 7 3 5 7 8 12 13 11 8 7 6 6 6 8 11 11 10 11 8 8 4 3 2 5 6 6 9 9 7 14 14 12 9 12 12 12 11 11 11
4 4 4 5 9 8 8 7 6 5 8 3 3 5 8 10 11 11 9 8 9 9 8 7 8 6 6 10 8 5 6 4 3 7 9 7 7 8 6 5 8 10 9 11 13 14 14 11 10
11 5 2 3 4 7 3 6 5 6 3 2 1 3 6 8 9 9 8 9 10 10 9 9 10 8 6 5 6 6 8 8 6 8 7 6 6 6 8 5 5 4 4 9 9 12 14 12 11
9 6 3 5 5 2 4 5 7 5 5 3 2 4 6 7 8 9 8 9 10 10 10 9 9 9 8 8 7 8 7 7 6 6 6 7 4 4 8 6 4 3 8 4 8 11 11 11 9
14 10 5 5 4 1 2 7 1 4 6 5 3 2 5 6 6 8 10 7 8 9 9 10 10 10 9 8 8 8 8 6 7 7 6 6 5 5 8 8 5 4 4 7 8 6 7 9 8
8 10 2 1 1 4 6 6 5 6 8 7 7 6 6 4 5 5 7 8 8 8 8 10 10 10 9 8 7 8 7 7 8 9 9 7 8 7 6 8 6 6 5 4 3 5 7 7 7
7 12 6 5 4 6 6 5 4 12 14 11 10 10 7 6 4 3 4 5 6 7 8 8 9 9 9 9 7 6 9 9 10 8 10 11 9 10 8 8 9 7 7 6 6 5 5 5 4
8 7 4 4 5 4 3 3 0 13 13 14 12 10 9 6 6 5 3 3 4 6 7 7 8 8 8 9 10 9 8 9 10 8 9 10 9 9 9 9 10 9 9 7 7 7 8 9 5
14 13 16 7 7 4 5 1 5 10 12 12 12 11 9 5 5 5 4 4 5 5 6 6 6 8 8 7 11 12 11 10 10 8 8 10 10 11 11 9 9 9 9 8 7 6 5 6 5
Wind_Direction
278 250 229 227 240 246 163 125 312 318 330 353 317 283 334 327 351 8 39 109 138 179 163 164 163 158 158 154 154 151 153 155 142 135 133 135 132 121 110 103 101 103 98 93 95 96 94 91 87
276 239 230 193 246 231 131 137 258 337 330 315 288 287 222 75 30 54 14 356 207 179 165 169 168 164 162 155 158 152 155 152 145 140 135 137 139 132 118 108 108 103 101 99 97 96 99 93 88
233 282 240 245 235 246 183 158 343 336 317 341 310 336 353 34 52 10 18 352 172 172 167 167 170 166 158 164 157 159 160 155 151 144 140 139 138 135 125 117 113 105 100 100 99 97 98 93 93
207 172 171 248 207 154 213 134 357 321 120 357 340 195 152 28 338 344 341 200 171 173 175 154 172 170 162 166 166 163 165 159 154 147 141 143 139 139 132 127 115 107 105 103 102 101 105 102 103
101 212 222 231 212 214 201 291 292 307 302 352 332 19 51 58 356 0 10 149 178 177 183 163 178 176 167 169 170 169 170 161 159 155 149 146 142 139 131 122 120 114 111 106 105 107 105 100 102
145 287 230 228 205 196 213 199 221 268 294 345 289 314 74 11 3 23 16 141 195 187 188 177 179 182 176 174 177 172 173 170 165 161 153 153 148 144 139 129 124 122 115 110 106 108 104 104 103
193 226 268 225 194 200 197 165 233 300 269 232 324 283 81 50 19 6 38 326 186 207 194 186 189 186 191 182 183 177 176 175 170 162 152 149 152 148 142 140 131 132 124 114 110 109 106 107 101
170 251 213 215 205 198 157 208 307 270 268 324 284 243 243 5 345 349 65 89 277 194 188 181 192 195 192 197 197 187 184 177 171 165 161 150 153 146 154 145 137 131 129 117 113 110 110 103 100
200 231 228 210 197 144 164 232 157 262 270 271 277 291 357 337 300 269 225 224 190 237 212 204 185 177 179 189 194 195 187 187 166 165 164 151 153 170 161 141 146 137 137 123 117 116 107 104 98
242 246 214 23 212 201 205 251 290 245 249 219 240 200 345 329 276 267 252 251 251 236 231 236 202 195 177 139 153 143 149 135 239 184 174 170 167 164 180 141 145 143 133 124 119 119 131 157 129
196 268 105 235 236 251 263 233 223 250 250 250 310 325 351 350 346 332 322 283 274 253 223 232 224 208 195 170 149 132 131 105 7 270 202 171 177 143 164 147 152 146 148 132 133 148 161 138 139
242 225 240 288 207 222 243 259 237 243 287 123 138 350 335 326 344 338 338 329 320 270 251 223 223 218 211 179 184 165 162 132 158 52 331 214 163 168 171 168 159 159 171 148 148 140 141 140 149
243 257 240 244 250 249 252 248 258 228 181 181 198 227 292 301 310 312 311 298 305 298 278 260 232 219 213 216 200 193 183 183 188 138 191 250 201 175 185 172 159 166 149 153 137 145 143 139 130
359 259 265 271 259 235 239 249 206 210 190 198 207 219 271 304 320 306 294 297 286 286 284 283 262 234 220 208 211 215 207 196 188 183 197 195 188 165 180 178 159 160 150 139 139 135 134 125 128
284 275 258 231 223 245 226 227 227 194 198 212 218 228 272 299 304 305 310 298 293 290 290 280 281 243 218 207 201 190 228 217 203 189 189 186 182 166 176 181 159 169 156 148 141 138 139 130 124
246 251 255 147 225 157 217 271 187 190 207 226 237 254 272 288 302 302 301 291 291 285 272 272 275 234 220 212 194 197 226 213 198 207 186 188 169 169 169 180 165 168 150 147 142 143 141 136 131
202 273 244 251 208 238 227 282 127 203 223 243 252 271 289 302 304 304 301 289 282 276 273 263 264 223 209 190 211 206 222 214 212 186 178 169 161 154 159 166 164 155 154 154 147 143 147 140 139
236 246 240 262 156 242 256 264 270 227 240 252 271 283 304 311 315 312 294 285 276 269 266 259 243 221 192 191 201 198 203 215 169 158 147 137 139 142 162 169 171 159 158 154 151 153 154 147 141
273 264 269 272 273 279 265 271 269 280 232 245 273 310 323 324 321 319 302 286 273 262 250 238 225 210 187 180 189 182 184 190 175 150 152 141 134 157 166 172 165 164 165 162 162 151 148 151 145
235 256 267 279 253 248 287 278 291 255 229 240 318 334 338 329 331 333 324 301 271 262 249 234 221 199 177 193 186 169 177 187 163 154 152 151 144 148 170 170 166 168 164 168 158 159 152 150 169
232 248 268 280 297 247 283 260 215 184 193 224 338 345 344 351 338 337 339 348 302 309 202 150 163 175 172 196 159 118 92 98 88 128 127 150 141 137 177 169 161 162 163 166 168 169 165 163 184
247 231 254 259 265 290 274 303 201 186 202 233 346 8 11 2 348 359 16 29 42 53 106 123 149 171 183 192 183 160 137 151 121 118 105 106 136 133 177 176 171 171 175 172 176 177 179 170 177
258 155 215 257 264 294 208 248 117 183 228 231 354 25 29 11 352 11 23 48 57 55 64 88 108 117 183 184 196 162 108 92 110 101 111 114 113 123 137 127 164 182 184 183 184 183 191 190 182
136 151 192 234 260 247 171 253 182 187 199 147 158 75 44 22 6 10 35 50 55 55 58 60 72 76 104 119 121 122 148 143 141 137 136 130 136 131 129 102 106 198 182 190 192 196 198 195 198
185 195 237 221 204 299 121 235 283 163 155 148 140 106 69 34 17 360 30 50 54 58 60 64 63 64 68 83 105 123 139 140 133 131 120 125 117 135 141 124 116 217 193 184 208 195 200 207 209
194 215 220 257 223 138 186 235 139 158 153 169 171 132 98 64 30 16 3 35 53 59 61 71 70 67 74 81 83 96 108 115 110 103 108 108 113 115 128 126 154 142 133 178 197 191 200 209 214
161 210 0 267 180 260 198 220 190 183 189 197 188 191 147 108 62 23 9 14 29 41 59 73 70 67 67 81 90 94 103 105 108 105 118 119 105 96 96 110 112 102 85 66 194 180 190 204 196
238 137 173 200 231 242 189 245 210 192 202 194 191 191 170 139 106 59 29 12 33 40 40 51 64 67 68 74 77 96 103 108 109 108 114 108 111 112 113 111 96 87 83 83 79 71 93 103 87
161 194 211 282 253 290 283 156 43 177 187 188 186 180 181 165 148 128 106 53 48 63 58 56 58 65 63 70 74 76 94 111 112 122 123 119 115 113 111 114 115 108 97 92 100 92 92 84 78
226 218 206 227 190 242 310 240 168 150 167 177 172 173 176 170 143 127 117 107 85 76 80 80 73 70 71 80 92 80 69 71 77 82 101 121 124 122 113 117 109 116 120 116 105 101 97 123 139